Tracking 27112 objects as of 27-Mar-2023
HD Live streaming from Space Station
objects crossing your sky now

PSLV R/B

Track PSLV R/B now!
10-day predictions


NORAD ID: 43287
Int'l Code: 2018-035B
Perigee: 269.1 km
Apogee: 19,427.3 km
Inclination: 19.1 °
Period: 342.6 minutes
Semi major axis: 16219 km
RCS: Unknown
Launch date: April 11, 2018
Source: India (IND)
Launch site: SRIHARIKOTA (SRI)

Note: This is a ROCKET BODY
Your satellite tracking list
Your tracking list is empty




NASA's NSSDC Master Catalog

Two Line Element Set (TLE):
1 43287U 18035B   23085.32462979  .00012478  00000-0  16422-2 0  9990
2 43287  19.0872  96.4472 5906017 346.6559   2.7651  4.20298597 73233
Source of the keplerian elements: AFSPC